owner,sensor,date,latitude,longitude,relative_humidity,qcFlag 
COMPS,ioos:station:USF.COMPS:C10:1,2014-02-01T00:05:00Z,27.1690,-82.9260,95.3,1111122 
COMPS,ioos:station:USF.COMPS:C10:1,2014-02-01T00:35:00Z,27.1690,-82.9260,95.4,1111122 
COMPS,ioos:station:USF.COMPS:C10:1,2014-02-01T01:05:00Z,27.1690,-82.9260,95.44,1111122 
COMPS,ioos:station:USF.COMPS:C10:1,2014-02-01T01:35:00Z,27.1690,-82.9260,95.57,1111122 
COMPS,ioos:station:USF.COMPS:C10:1,2014-02-01T02:05:00Z,27.1690,-82.9260,95.4,1111122 
COMPS,ioos:station:USF.COMPS:C10:1,2014-02-01T02:35:00Z,27.1690,-82.9260,95.35,1111122 
COMPS,ioos:station:USF.COMPS:C10:1,2014-02-01T03:05:00Z,27.1690,-82.9260,95.34,1111122 
COMPS,ioos:station:USF.COMPS:C10:1,2014-02-01T03:35:00Z,27.1690,-82.9260,95.24,1111122 
COMPS,ioos:station:USF.COMPS:C10:1,2014-02-01T04:05:00Z,27.1690,-82.9260,95.2,1111122 
COMPS,ioos:station:USF.COMPS:C10:1,2014-02-01T04:35:00Z,27.1690,-82.9260,95.19,1111122 
COMPS,ioos:station:USF.COMPS:C10:1,2014-02-01T05:05:00Z,27.1690,-82.9260,95.34,1111122 
COMPS,ioos:station:USF.COMPS:C10:1,2014-02-01T05:35:00Z,27.1690,-82.9260,95.43,1111122 
COMPS,ioos:station:USF.COMPS:C10:1,2014-02-01T06:05:00Z,27.1690,-82.9260,95.46,1111122 
COMPS,ioos:station:USF.COMPS:C10:1,2014-02-01T06:35:00Z,27.1690,-82.9260,95.45,1111122 
COMPS,ioos:station:USF.COMPS:C10:1,2014-02-01T07:05:00Z,27.1690,-82.9260,95.53,1111122 
COMPS,ioos:station:USF.COMPS:C10:1,2014-02-01T07:35:00Z,27.1690,-82.9260,95.51,1111122 
COMPS,ioos:station:USF.COMPS:C10:1,2014-02-01T08:05:00Z,27.1690,-82.9260,95.52,1111122 
COMPS,ioos:station:USF.COMPS:C10:1,2014-02-01T08:35:00Z,27.1690,-82.9260,95.55,1111122 
COMPS,ioos:station:USF.COMPS:C10:1,2014-02-01T09:05:00Z,27.1690,-82.9260,95.64,1111122 
COMPS,ioos:station:USF.COMPS:C10:1,2014-02-01T09:35:00Z,27.1690,-82.9260,95.74,1111122 
COMPS,ioos:station:USF.COMPS:C10:1,2014-02-01T10:05:00Z,27.1690,-82.9260,95.92,1111122 
COMPS,ioos:station:USF.COMPS:C10:1,2014-02-01T10:35:00Z,27.1690,-82.9260,96.07,1111122 
COMPS,ioos:station:USF.COMPS:C10:1,2014-02-01T11:05:00Z,27.1690,-82.9260,96.65,1111122 
COMPS,ioos:station:USF.COMPS:C10:1,2014-02-01T11:35:00Z,27.1690,-82.9260,97.04,1111122 
COMPS,ioos:station:USF.COMPS:C10:1,2014-02-01T12:05:00Z,27.1690,-82.9260,97.24,1111122 
COMPS,ioos:station:USF.COMPS:C10:1,2014-02-01T12:35:00Z,27.1690,-82.9260,97.2,1111122 
COMPS,ioos:station:USF.COMPS:C10:1,2014-02-01T13:05:00Z,27.1690,-82.9260,97.02,1111122 
COMPS,ioos:station:USF.COMPS:C10:1,2014-02-01T13:35:00Z,27.1690,-82.9260,96.64,1111122 
COMPS,ioos:station:USF.COMPS:C10:1,2014-02-01T14:05:00Z,27.1690,-82.9260,96.34,1111122 
COMPS,ioos:station:USF.COMPS:C10:1,2014-02-01T14:35:00Z,27.1690,-82.9260,96.65,1111122 
COMPS,ioos:station:USF.COMPS:C10:1,2014-02-01T15:05:00Z,27.1690,-82.9260,96.34,1111122 
COMPS,ioos:station:USF.COMPS:C10:1,2014-02-01T15:35:00Z,27.1690,-82.9260,96.01,1111122 
COMPS,ioos:station:USF.COMPS:C10:1,2014-02-01T16:05:00Z,27.1690,-82.9260,95.73,1111122 
COMPS,ioos:station:USF.COMPS:C10:1,2014-02-01T16:35:00Z,27.1690,-82.9260,95.72,1111122 
COMPS,ioos:station:USF.COMPS:C10:1,2014-02-01T17:05:00Z,27.1690,-82.9260,95.64,1111122 
COMPS,ioos:station:USF.COMPS:C10:1,2014-02-01T17:35:00Z,27.1690,-82.9260,95.58,1111122 
COMPS,ioos:station:USF.COMPS:C10:1,2014-02-01T18:05:00Z,27.1690,-82.9260,94.99,1111122 
COMPS,ioos:station:USF.COMPS:C10:1,2014-02-01T18:35:00Z,27.1690,-82.9260,94.99,1111122 
COMPS,ioos:station:USF.COMPS:C10:1,2014-02-01T19:05:00Z,27.1690,-82.9260,94.99,1111122 
COMPS,ioos:station:USF.COMPS:C10:1,2014-02-01T19:35:00Z,27.1690,-82.9260,94.91,1111122 
COMPS,ioos:station:USF.COMPS:C10:1,2014-02-01T20:05:00Z,27.1690,-82.9260,94.62,1111122 
COMPS,ioos:station:USF.COMPS:C10:1,2014-02-01T20:35:00Z,27.1690,-82.9260,94.53,1111122 
COMPS,ioos:station:USF.COMPS:C10:1,2014-02-01T21:05:00Z,27.1690,-82.9260,94.28,1111122 
COMPS,ioos:station:USF.COMPS:C10:1,2014-02-01T21:35:00Z,27.1690,-82.9260,93.96,1111122 
COMPS,ioos:station:USF.COMPS:C10:1,2014-02-01T22:05:00Z,27.1690,-82.9260,92.09,1111122 
COMPS,ioos:station:USF.COMPS:C10:1,2014-02-01T22:35:00Z,27.1690,-82.9260,87.61,1111122 
COMPS,ioos:station:USF.COMPS:C10:1,2014-02-01T23:05:00Z,27.1690,-82.9260,88.7,1111122 
COMPS,ioos:station:USF.COMPS:C10:1,2014-02-01T23:35:00Z,27.1690,-82.9260,93.57,1111122 
COMPS,ioos:station:USF.COMPS:C10:1,2014-02-02T00:05:00Z,27.1690,-82.9260,94.64,1111122 
COMPS,ioos:station:USF.COMPS:C10:1,2014-02-02T00:35:00Z,27.1690,-82.9260,95.89,1111122 
COMPS,ioos:station:USF.COMPS:C10:1,2014-02-02T01:05:00Z,27.1690,-82.9260,96.57,1111122 
COMPS,ioos:station:USF.COMPS:C10:1,2014-02-02T01:35:00Z,27.1690,-82.9260,96.9,1111122 
COMPS,ioos:station:USF.COMPS:C10:1,2014-02-02T02:05:00Z,27.1690,-82.9260,97.2,1111122 
COMPS,ioos:station:USF.COMPS:C10:1,2014-02-02T02:35:00Z,27.1690,-82.9260,97.46,1111122 
COMPS,ioos:station:USF.COMPS:C10:1,2014-02-02T03:05:00Z,27.1690,-82.9260,97.75,1111122 
COMPS,ioos:station:USF.COMPS:C10:1,2014-02-02T03:35:00Z,27.1690,-82.9260,97.89,1111122 
COMPS,ioos:station:USF.COMPS:C10:1,2014-02-02T04:05:00Z,27.1690,-82.9260,97.99,1111122 
COMPS,ioos:station:USF.COMPS:C10:1,2014-02-02T04:35:00Z,27.1690,-82.9260,98.13,1111122 
COMPS,ioos:station:USF.COMPS:C10:1,2014-02-02T05:05:00Z,27.1690,-82.9260,98.22,1111122 
COMPS,ioos:station:USF.COMPS:C10:1,2014-02-02T05:35:00Z,27.1690,-82.9260,98.34,1111122 
COMPS,ioos:station:USF.COMPS:C10:1,2014-02-02T06:05:00Z,27.1690,-82.9260,98.42,1111122 
COMPS,ioos:station:USF.COMPS:C10:1,2014-02-02T06:35:00Z,27.1690,-82.9260,98.48,1111122 
COMPS,ioos:station:USF.COMPS:C10:1,2014-02-02T07:05:00Z,27.1690,-82.9260,98.33,1111122 
COMPS,ioos:station:USF.COMPS:C10:1,2014-02-02T07:35:00Z,27.1690,-82.9260,98.17,1111122 
COMPS,ioos:station:USF.COMPS:C10:1,2014-02-02T08:05:00Z,27.1690,-82.9260,97.99,1111122 
COMPS,ioos:station:USF.COMPS:C10:1,2014-02-02T08:35:00Z,27.1690,-82.9260,97.8,1111122 
COMPS,ioos:station:USF.COMPS:C10:1,2014-02-02T09:05:00Z,27.1690,-82.9260,97.72,1111122 
COMPS,ioos:station:USF.COMPS:C10:1,2014-02-02T09:35:00Z,27.1690,-82.9260,97.94,1111122 
COMPS,ioos:station:USF.COMPS:C10:1,2014-02-02T10:05:00Z,27.1690,-82.9260,98.14,1111122 
COMPS,ioos:station:USF.COMPS:C10:1,2014-02-02T10:35:00Z,27.1690,-82.9260,98.1,1111122 
COMPS,ioos:station:USF.COMPS:C10:1,2014-02-02T11:05:00Z,27.1690,-82.9260,97.88,1111122 
COMPS,ioos:station:USF.COMPS:C10:1,2014-02-02T11:35:00Z,27.1690,-82.9260,97.6,1111122 
COMPS,ioos:station:USF.COMPS:C10:1,2014-02-02T12:05:00Z,27.1690,-82.9260,97.37,1111122 
COMPS,ioos:station:USF.COMPS:C10:1,2014-02-02T12:35:00Z,27.1690,-82.9260,96.88,1111122 
COMPS,ioos:station:USF.COMPS:C10:1,2014-02-02T13:05:00Z,27.1690,-82.9260,95.51,1111122 
COMPS,ioos:station:USF.COMPS:C10:1,2014-02-02T13:35:00Z,27.1690,-82.9260,93.77,1111122 
COMPS,ioos:station:USF.COMPS:C10:1,2014-02-02T14:05:00Z,27.1690,-82.9260,94.79,1111122 
COMPS,ioos:station:USF.COMPS:C10:1,2014-02-02T14:35:00Z,27.1690,-82.9260,95.9,1111122 
COMPS,ioos:station:USF.COMPS:C10:1,2014-02-02T15:05:00Z,27.1690,-82.9260,96.3,1111122 
COMPS,ioos:station:USF.COMPS:C10:1,2014-02-02T15:35:00Z,27.1690,-82.9260,96.58,1111122 
COMPS,ioos:station:USF.COMPS:C10:1,2014-02-02T16:05:00Z,27.1690,-82.9260,96.97,1111122 
COMPS,ioos:station:USF.COMPS:C10:1,2014-02-02T16:35:00Z,27.1690,-82.9260,97.25,1111122 
COMPS,ioos:station:USF.COMPS:C10:1,2014-02-02T17:05:00Z,27.1690,-82.9260,96.99,1111122 
COMPS,ioos:station:USF.COMPS:C10:1,2014-02-02T17:35:00Z,27.1690,-82.9260,97.32,1111122 
COMPS,ioos:station:USF.COMPS:C10:1,2014-02-02T18:05:00Z,27.1690,-82.9260,97.57,1111122 
COMPS,ioos:station:USF.COMPS:C10:1,2014-02-02T18:35:00Z,27.1690,-82.9260,97.57,1111122 
COMPS,ioos:station:USF.COMPS:C10:1,2014-02-02T19:05:00Z,27.1690,-82.9260,97.38,1111122 
COMPS,ioos:station:USF.COMPS:C10:1,2014-02-02T19:35:00Z,27.1690,-82.9260,97.1,1111122 
COMPS,ioos:station:USF.COMPS:C10:1,2014-02-02T20:05:00Z,27.1690,-82.9260,96.77,1111122 
COMPS,ioos:station:USF.COMPS:C10:1,2014-02-02T20:35:00Z,27.1690,-82.9260,95.9,1111122 
COMPS,ioos:station:USF.COMPS:C10:1,2014-02-02T21:05:00Z,27.1690,-82.9260,91.93,1111122 
COMPS,ioos:station:USF.COMPS:C10:1,2014-02-02T21:35:00Z,27.1690,-82.9260,90.44,1111122 
COMPS,ioos:station:USF.COMPS:C10:1,2014-02-02T22:05:00Z,27.1690,-82.9260,90.5,1111122 
COMPS,ioos:station:USF.COMPS:C10:1,2014-02-02T22:35:00Z,27.1690,-82.9260,91.14,1111122 
COMPS,ioos:station:USF.COMPS:C10:1,2014-02-02T23:05:00Z,27.1690,-82.9260,91.63,1111122 
COMPS,ioos:station:USF.COMPS:C10:1,2014-02-02T23:35:00Z,27.1690,-82.9260,91.83,1111122 
COMPS,ioos:station:USF.COMPS:C10:1,2014-02-03T00:05:00Z,27.1690,-82.9260,93.23,1111122 
COMPS,ioos:station:USF.COMPS:C10:1,2014-02-03T00:35:00Z,27.1690,-82.9260,93.25,1111122 
COMPS,ioos:station:USF.COMPS:C10:1,2014-02-03T01:05:00Z,27.1690,-82.9260,93.7,1111122 
COMPS,ioos:station:USF.COMPS:C10:1,2014-02-03T01:35:00Z,27.1690,-82.9260,94.35,1111122 
COMPS,ioos:station:USF.COMPS:C10:1,2014-02-03T02:05:00Z,27.1690,-82.9260,94.31,1111122 
COMPS,ioos:station:USF.COMPS:C10:1,2014-02-03T02:35:00Z,27.1690,-82.9260,94.63,1111122 
COMPS,ioos:station:USF.COMPS:C10:1,2014-02-03T03:05:00Z,27.1690,-82.9260,94.46,1111122 
COMPS,ioos:station:USF.COMPS:C10:1,2014-02-03T03:35:00Z,27.1690,-82.9260,94.44,1111122 
COMPS,ioos:station:USF.COMPS:C10:1,2014-02-03T04:05:00Z,27.1690,-82.9260,94.28,1111122 
COMPS,ioos:station:USF.COMPS:C10:1,2014-02-03T04:35:00Z,27.1690,-82.9260,93.71,1111122 
COMPS,ioos:station:USF.COMPS:C10:1,2014-02-03T05:05:00Z,27.1690,-82.9260,93.17,1111122 
COMPS,ioos:station:USF.COMPS:C10:1,2014-02-03T05:35:00Z,27.1690,-82.9260,92.63,1111122 
COMPS,ioos:station:USF.COMPS:C10:1,2014-02-03T06:05:00Z,27.1690,-82.9260,92.86,1111122 
COMPS,ioos:station:USF.COMPS:C10:1,2014-02-03T06:35:00Z,27.1690,-82.9260,93.38,1111122 
COMPS,ioos:station:USF.COMPS:C10:1,2014-02-03T07:05:00Z,27.1690,-82.9260,93.44,1111122 
COMPS,ioos:station:USF.COMPS:C10:1,2014-02-03T07:35:00Z,27.1690,-82.9260,92.91,1111122 
COMPS,ioos:station:USF.COMPS:C10:1,2014-02-03T08:05:00Z,27.1690,-82.9260,92.85,1111122 
COMPS,ioos:station:USF.COMPS:C10:1,2014-02-03T08:35:00Z,27.1690,-82.9260,92.94,1111122 
COMPS,ioos:station:USF.COMPS:C10:1,2014-02-03T09:05:00Z,27.1690,-82.9260,92.99,1111122 
COMPS,ioos:station:USF.COMPS:C10:1,2014-02-03T09:35:00Z,27.1690,-82.9260,93.2,1111122 
COMPS,ioos:station:USF.COMPS:C10:1,2014-02-03T10:05:00Z,27.1690,-82.9260,93.64,1111122 
COMPS,ioos:station:USF.COMPS:C10:1,2014-02-03T10:35:00Z,27.1690,-82.9260,93.51,1111122 
COMPS,ioos:station:USF.COMPS:C10:1,2014-02-03T11:05:00Z,27.1690,-82.9260,93.9,1111122 
COMPS,ioos:station:USF.COMPS:C10:1,2014-02-03T11:35:00Z,27.1690,-82.9260,94.48,1111122 
COMPS,ioos:station:USF.COMPS:C10:1,2014-02-03T12:05:00Z,27.1690,-82.9260,94.88,1111122 
COMPS,ioos:station:USF.COMPS:C10:1,2014-02-03T12:35:00Z,27.1690,-82.9260,95.29,1111122 
COMPS,ioos:station:USF.COMPS:C10:1,2014-02-03T13:05:00Z,27.1690,-82.9260,95.58,1111122 
COMPS,ioos:station:USF.COMPS:C10:1,2014-02-03T13:35:00Z,27.1690,-82.9260,95.62,1111122 
COMPS,ioos:station:USF.COMPS:C10:1,2014-02-03T14:05:00Z,27.1690,-82.9260,95.88,1111122 
COMPS,ioos:station:USF.COMPS:C10:1,2014-02-03T14:35:00Z,27.1690,-82.9260,95.75,1111122 
COMPS,ioos:station:USF.COMPS:C10:1,2014-02-03T15:05:00Z,27.1690,-82.9260,95.96,1111122 
COMPS,ioos:station:USF.COMPS:C10:1,2014-02-03T15:35:00Z,27.1690,-82.9260,96.21,1111122 
COMPS,ioos:station:USF.COMPS:C10:1,2014-02-03T16:05:00Z,27.1690,-82.9260,96.54,1111122 
COMPS,ioos:station:USF.COMPS:C10:1,2014-02-03T16:35:00Z,27.1690,-82.9260,96.8,1111122 
COMPS,ioos:station:USF.COMPS:C10:1,2014-02-03T17:05:00Z,27.1690,-82.9260,96.9,1111122 
COMPS,ioos:station:USF.COMPS:C10:1,2014-02-03T17:35:00Z,27.1690,-82.9260,96.76,1111122 
COMPS,ioos:station:USF.COMPS:C10:1,2014-02-03T18:05:00Z,27.1690,-82.9260,96.39,1111122 
COMPS,ioos:station:USF.COMPS:C10:1,2014-02-03T18:35:00Z,27.1690,-82.9260,96.32,1111122 
COMPS,ioos:station:USF.COMPS:C10:1,2014-02-03T19:05:00Z,27.1690,-82.9260,96.25,1111122 
COMPS,ioos:station:USF.COMPS:C10:1,2014-02-03T19:35:00Z,27.1690,-82.9260,96.25,1111122 
COMPS,ioos:station:USF.COMPS:C10:1,2014-02-03T20:05:00Z,27.1690,-82.9260,96.09,1111122 
COMPS,ioos:station:USF.COMPS:C10:1,2014-02-03T20:35:00Z,27.1690,-82.9260,96.12,1111122 
COMPS,ioos:station:USF.COMPS:C10:1,2014-02-03T21:05:00Z,27.1690,-82.9260,96.03,1111122 
COMPS,ioos:station:USF.COMPS:C10:1,2014-02-03T21:35:00Z,27.1690,-82.9260,95.96,1111122 
COMPS,ioos:station:USF.COMPS:C10:1,2014-02-03T22:05:00Z,27.1690,-82.9260,95.96,1111122 
COMPS,ioos:station:USF.COMPS:C10:1,2014-02-03T22:35:00Z,27.1690,-82.9260,96.68,1111122 
COMPS,ioos:station:USF.COMPS:C10:1,2014-02-03T23:05:00Z,27.1690,-82.9260,97.02,1111122 
COMPS,ioos:station:USF.COMPS:C10:1,2014-02-03T23:35:00Z,27.1690,-82.9260,97.35,1111122 
COMPS,ioos:station:USF.COMPS:C10:1,2014-02-04T00:05:00Z,27.1690,-82.9260,97.58,1111122 
COMPS,ioos:station:USF.COMPS:C10:1,2014-02-04T00:35:00Z,27.1690,-82.9260,97.86,1111122 
COMPS,ioos:station:USF.COMPS:C10:1,2014-02-04T01:05:00Z,27.1690,-82.9260,98.11,1111122 
COMPS,ioos:station:USF.COMPS:C10:1,2014-02-04T01:35:00Z,27.1690,-82.9260,98.24,1111122 
COMPS,ioos:station:USF.COMPS:C10:1,2014-02-04T02:05:00Z,27.1690,-82.9260,98.35,1111122 
COMPS,ioos:station:USF.COMPS:C10:1,2014-02-04T02:35:00Z,27.1690,-82.9260,98.43,1111122 
COMPS,ioos:station:USF.COMPS:C10:1,2014-02-04T03:05:00Z,27.1690,-82.9260,98.58,1111122 
COMPS,ioos:station:USF.COMPS:C10:1,2014-02-04T03:35:00Z,27.1690,-82.9260,98.68,1111122 
COMPS,ioos:station:USF.COMPS:C10:1,2014-02-04T04:05:00Z,27.1690,-82.9260,98.77,1111122 
COMPS,ioos:station:USF.COMPS:C10:1,2014-02-04T04:35:00Z,27.1690,-82.9260,98.84,1111122 
COMPS,ioos:station:USF.COMPS:C10:1,2014-02-04T05:05:00Z,27.1690,-82.9260,98.91,1111122 
COMPS,ioos:station:USF.COMPS:C10:1,2014-02-04T05:35:00Z,27.1690,-82.9260,98.98,1111122 
COMPS,ioos:station:USF.COMPS:C10:1,2014-02-04T06:05:00Z,27.1690,-82.9260,99.04,1111122 
COMPS,ioos:station:USF.COMPS:C10:1,2014-02-04T06:35:00Z,27.1690,-82.9260,99.11,1111122 
COMPS,ioos:station:USF.COMPS:C10:1,2014-02-13T14:05:00Z,27.1690,-82.9260,78.85,1111122 
COMPS,ioos:station:USF.COMPS:C10:1,2014-02-13T14:35:00Z,27.1690,-82.9260,81.26,1111122 
COMPS,ioos:station:USF.COMPS:C10:1,2014-02-13T15:05:00Z,27.1690,-82.9260,75.91,1111122 
COMPS,ioos:station:USF.COMPS:C10:1,2014-02-13T15:35:00Z,27.1690,-82.9260,75.98,1111122 
COMPS,ioos:station:USF.COMPS:C10:1,2014-02-13T16:05:00Z,27.1690,-82.9260,73.95,1111122 
COMPS,ioos:station:USF.COMPS:C10:1,2014-02-13T16:35:00Z,27.1690,-82.9260,71.44,1111122 
COMPS,ioos:station:USF.COMPS:C10:1,2014-02-13T17:05:00Z,27.1690,-82.9260,68.43,1111122 
COMPS,ioos:station:USF.COMPS:C10:1,2014-02-13T17:35:00Z,27.1690,-82.9260,66.36,1111122 
COMPS,ioos:station:USF.COMPS:C10:1,2014-02-13T18:05:00Z,27.1690,-82.9260,71.6,1111122 
COMPS,ioos:station:USF.COMPS:C10:1,2014-02-13T18:35:00Z,27.1690,-82.9260,76.18,1111122 
COMPS,ioos:station:USF.COMPS:C10:1,2014-02-13T19:05:00Z,27.1690,-82.9260,71.97,1111122 
COMPS,ioos:station:USF.COMPS:C10:1,2014-02-13T19:35:00Z,27.1690,-82.9260,67.86,1111122 
COMPS,ioos:station:USF.COMPS:C10:1,2014-02-13T20:05:00Z,27.1690,-82.9260,70.48,1111122 
COMPS,ioos:station:USF.COMPS:C10:1,2014-02-13T20:35:00Z,27.1690,-82.9260,77.86,1111122 
COMPS,ioos:station:USF.COMPS:C10:1,2014-02-13T21:05:00Z,27.1690,-82.9260,78.14,1111122 
COMPS,ioos:station:USF.COMPS:C10:1,2014-02-13T21:35:00Z,27.1690,-82.9260,78.36,1111122 
COMPS,ioos:station:USF.COMPS:C10:1,2014-02-13T22:05:00Z,27.1690,-82.9260,78.33,1111122 
COMPS,ioos:station:USF.COMPS:C10:1,2014-02-13T22:35:00Z,27.1690,-82.9260,78.53,1111122 
COMPS,ioos:station:USF.COMPS:C10:1,2014-02-13T23:05:00Z,27.1690,-82.9260,75.53,1111122 
COMPS,ioos:station:USF.COMPS:C10:1,2014-02-13T23:35:00Z,27.1690,-82.9260,69.35,1111122 
COMPS,ioos:station:USF.COMPS:C10:1,2014-02-14T00:05:00Z,27.1690,-82.9260,66.27,1111122 
COMPS,ioos:station:USF.COMPS:C10:1,2014-02-14T00:35:00Z,27.1690,-82.9260,68.11,1111122 
COMPS,ioos:station:USF.COMPS:C10:1,2014-02-14T01:05:00Z,27.1690,-82.9260,68.9,1111122 
COMPS,ioos:station:USF.COMPS:C10:1,2014-02-14T01:35:00Z,27.1690,-82.9260,70.04,1111122 
COMPS,ioos:station:USF.COMPS:C10:1,2014-02-14T02:05:00Z,27.1690,-82.9260,69.18,1111122 
COMPS,ioos:station:USF.COMPS:C10:1,2014-02-14T02:35:00Z,27.1690,-82.9260,69.79,1111122 
COMPS,ioos:station:USF.COMPS:C10:1,2014-02-14T03:05:00Z,27.1690,-82.9260,68.74,1111122 
COMPS,ioos:station:USF.COMPS:C10:1,2014-02-14T03:35:00Z,27.1690,-82.9260,68.51,1111122 
COMPS,ioos:station:USF.COMPS:C10:1,2014-02-14T04:05:00Z,27.1690,-82.9260,70.32,1111122 
COMPS,ioos:station:USF.COMPS:C10:1,2014-02-14T04:35:00Z,27.1690,-82.9260,69.05,1111122 
COMPS,ioos:station:USF.COMPS:C10:1,2014-02-14T05:05:00Z,27.1690,-82.9260,67.81,1111122 
COMPS,ioos:station:USF.COMPS:C10:1,2014-02-14T05:35:00Z,27.1690,-82.9260,66.92,1111122 
COMPS,ioos:station:USF.COMPS:C10:1,2014-02-14T06:05:00Z,27.1690,-82.9260,67.67,1111122 
COMPS,ioos:station:USF.COMPS:C10:1,2014-02-14T06:35:00Z,27.1690,-82.9260,69.23,1111122 
COMPS,ioos:station:USF.COMPS:C10:1,2014-02-14T07:05:00Z,27.1690,-82.9260,68.86,1111122 
COMPS,ioos:station:USF.COMPS:C10:1,2014-02-14T07:35:00Z,27.1690,-82.9260,69.03,1111122 
COMPS,ioos:station:USF.COMPS:C10:1,2014-02-14T08:05:00Z,27.1690,-82.9260,67.83,1111122 
COMPS,ioos:station:USF.COMPS:C10:1,2014-02-14T08:35:00Z,27.1690,-82.9260,67.83,1111122 
COMPS,ioos:station:USF.COMPS:C10:1,2014-02-14T09:05:00Z,27.1690,-82.9260,67.25,1111122 
COMPS,ioos:station:USF.COMPS:C10:1,2014-02-14T09:35:00Z,27.1690,-82.9260,65.44,1111122 
COMPS,ioos:station:USF.COMPS:C10:1,2014-02-14T10:05:00Z,27.1690,-82.9260,67.17,1111122 
COMPS,ioos:station:USF.COMPS:C10:1,2014-02-14T10:35:00Z,27.1690,-82.9260,66.85,1111122 
COMPS,ioos:station:USF.COMPS:C10:1,2014-02-14T11:05:00Z,27.1690,-82.9260,68.59,1111122 
COMPS,ioos:station:USF.COMPS:C10:1,2014-02-14T11:35:00Z,27.1690,-82.9260,68.09,1111122 
COMPS,ioos:station:USF.COMPS:C10:1,2014-02-14T12:05:00Z,27.1690,-82.9260,67.59,1111122 
COMPS,ioos:station:USF.COMPS:C10:1,2014-02-14T12:35:00Z,27.1690,-82.9260,67.0,1111122 
COMPS,ioos:station:USF.COMPS:C10:1,2014-02-14T13:05:00Z,27.1690,-82.9260,67.4,1111122 
COMPS,ioos:station:USF.COMPS:C10:1,2014-02-14T13:35:00Z,27.1690,-82.9260,66.27,1111122 
COMPS,ioos:station:USF.COMPS:C10:1,2014-02-14T14:05:00Z,27.1690,-82.9260,66.51,1111122 
COMPS,ioos:station:USF.COMPS:C10:1,2014-02-14T14:35:00Z,27.1690,-82.9260,65.94,1111122 
COMPS,ioos:station:USF.COMPS:C10:1,2014-02-14T15:05:00Z,27.1690,-82.9260,65.22,1111122 
COMPS,ioos:station:USF.COMPS:C10:1,2014-02-14T15:35:00Z,27.1690,-82.9260,65.0,1111122 
COMPS,ioos:station:USF.COMPS:C10:1,2014-02-14T16:05:00Z,27.1690,-82.9260,64.18,1111122 
COMPS,ioos:station:USF.COMPS:C10:1,2014-02-14T16:35:00Z,27.1690,-82.9260,69.02,1111122 
COMPS,ioos:station:USF.COMPS:C10:1,2014-02-14T17:05:00Z,27.1690,-82.9260,68.43,1111122 
COMPS,ioos:station:USF.COMPS:C10:1,2014-02-14T17:35:00Z,27.1690,-82.9260,67.71,1111122 
COMPS,ioos:station:USF.COMPS:C10:1,2014-02-14T18:05:00Z,27.1690,-82.9260,67.34,1111122 
COMPS,ioos:station:USF.COMPS:C10:1,2014-02-14T18:35:00Z,27.1690,-82.9260,65.99,1111122 
COMPS,ioos:station:USF.COMPS:C10:1,2014-02-14T19:05:00Z,27.1690,-82.9260,64.68,1111122 
COMPS,ioos:station:USF.COMPS:C10:1,2014-02-14T19:35:00Z,27.1690,-82.9260,64.99,1111122 
COMPS,ioos:station:USF.COMPS:C10:1,2014-02-14T20:05:00Z,27.1690,-82.9260,64.82,1111122 
COMPS,ioos:station:USF.COMPS:C10:1,2014-02-14T20:35:00Z,27.1690,-82.9260,63.43,1111122 
COMPS,ioos:station:USF.COMPS:C10:1,2014-02-14T21:05:00Z,27.1690,-82.9260,64.17,1111122 
COMPS,ioos:station:USF.COMPS:C10:1,2014-02-14T21:35:00Z,27.1690,-82.9260,64.02,1111122 
COMPS,ioos:station:USF.COMPS:C10:1,2014-02-14T22:05:00Z,27.1690,-82.9260,64.79,1111122 
COMPS,ioos:station:USF.COMPS:C10:1,2014-02-14T22:35:00Z,27.1690,-82.9260,67.86,1111122 
COMPS,ioos:station:USF.COMPS:C10:1,2014-02-14T23:05:00Z,27.1690,-82.9260,67.09,1111122 
COMPS,ioos:station:USF.COMPS:C10:1,2014-02-14T23:35:00Z,27.1690,-82.9260,70.51,1111122 
COMPS,ioos:station:USF.COMPS:C10:1,2014-02-15T00:05:00Z,27.1690,-82.9260,71.55,1111122 
COMPS,ioos:station:USF.COMPS:C10:1,2014-02-15T00:35:00Z,27.1690,-82.9260,72.18,1111122 
COMPS,ioos:station:USF.COMPS:C10:1,2014-02-15T01:05:00Z,27.1690,-82.9260,72.4,1111122 
COMPS,ioos:station:USF.COMPS:C10:1,2014-02-15T01:35:00Z,27.1690,-82.9260,72.87,1111122 
COMPS,ioos:station:USF.COMPS:C10:1,2014-02-15T02:05:00Z,27.1690,-82.9260,73.6,1111122 
COMPS,ioos:station:USF.COMPS:C10:1,2014-02-15T02:35:00Z,27.1690,-82.9260,74.5,1111122 
COMPS,ioos:station:USF.COMPS:C10:1,2014-02-15T03:05:00Z,27.1690,-82.9260,75.23,1111122 
COMPS,ioos:station:USF.COMPS:C10:1,2014-02-15T03:35:00Z,27.1690,-82.9260,76.26,1111122 
COMPS,ioos:station:USF.COMPS:C10:1,2014-02-15T04:05:00Z,27.1690,-82.9260,75.72,1111122 
COMPS,ioos:station:USF.COMPS:C10:1,2014-02-15T04:35:00Z,27.1690,-82.9260,76.1,1111122 
COMPS,ioos:station:USF.COMPS:C10:1,2014-02-15T05:05:00Z,27.1690,-82.9260,69.17,1111122 
COMPS,ioos:station:USF.COMPS:C10:1,2014-02-15T05:35:00Z,27.1690,-82.9260,70.06,1111122 
COMPS,ioos:station:USF.COMPS:C10:1,2014-02-15T06:05:00Z,27.1690,-82.9260,70.22,1111122 
COMPS,ioos:station:USF.COMPS:C10:1,2014-02-15T06:35:00Z,27.1690,-82.9260,71.23,1111122 
COMPS,ioos:station:USF.COMPS:C10:1,2014-02-15T07:05:00Z,27.1690,-82.9260,72.52,1111122 
COMPS,ioos:station:USF.COMPS:C10:1,2014-02-15T07:35:00Z,27.1690,-82.9260,73.39,1111122 
COMPS,ioos:station:USF.COMPS:C10:1,2014-02-15T08:05:00Z,27.1690,-82.9260,73.91,1111122 
COMPS,ioos:station:USF.COMPS:C10:1,2014-02-15T08:35:00Z,27.1690,-82.9260,74.49,1111122 
COMPS,ioos:station:USF.COMPS:C10:1,2014-02-15T09:05:00Z,27.1690,-82.9260,75.84,1111122 
COMPS,ioos:station:USF.COMPS:C10:1,2014-02-15T09:35:00Z,27.1690,-82.9260,76.38,1111122 
COMPS,ioos:station:USF.COMPS:C10:1,2014-02-15T10:05:00Z,27.1690,-82.9260,77.24,1111122 
COMPS,ioos:station:USF.COMPS:C10:1,2014-02-15T10:35:00Z,27.1690,-82.9260,78.41,1111122 
COMPS,ioos:station:USF.COMPS:C10:1,2014-02-15T11:05:00Z,27.1690,-82.9260,80.66,1111122 
COMPS,ioos:station:USF.COMPS:C10:1,2014-02-15T11:35:00Z,27.1690,-82.9260,82.12,1111122 
COMPS,ioos:station:USF.COMPS:C10:1,2014-02-15T12:05:00Z,27.1690,-82.9260,80.79,1111122 
COMPS,ioos:station:USF.COMPS:C10:1,2014-02-15T12:35:00Z,27.1690,-82.9260,79.7,1111122 
COMPS,ioos:station:USF.COMPS:C10:1,2014-02-15T13:05:00Z,27.1690,-82.9260,77.32,1111122 
COMPS,ioos:station:USF.COMPS:C10:1,2014-02-15T13:35:00Z,27.1690,-82.9260,79.98,1111122 
COMPS,ioos:station:USF.COMPS:C10:1,2014-02-15T14:05:00Z,27.1690,-82.9260,79.02,1111122 
COMPS,ioos:station:USF.COMPS:C10:1,2014-02-15T14:35:00Z,27.1690,-82.9260,81.03,1111122 
COMPS,ioos:station:USF.COMPS:C10:1,2014-02-15T15:05:00Z,27.1690,-82.9260,75.54,1111122 
COMPS,ioos:station:USF.COMPS:C10:1,2014-02-15T15:35:00Z,27.1690,-82.9260,63.99,1111122 
COMPS,ioos:station:USF.COMPS:C10:1,2014-02-15T16:05:00Z,27.1690,-82.9260,63.36,1111122 
COMPS,ioos:station:USF.COMPS:C10:1,2014-02-15T16:35:00Z,27.1690,-82.9260,65.72,1111122 
COMPS,ioos:station:USF.COMPS:C10:1,2014-02-15T17:05:00Z,27.1690,-82.9260,67.64,1111122 
COMPS,ioos:station:USF.COMPS:C10:1,2014-02-15T17:35:00Z,27.1690,-82.9260,67.52,1111122 
COMPS,ioos:station:USF.COMPS:C10:1,2014-02-15T18:05:00Z,27.1690,-82.9260,61.32,1111122 
COMPS,ioos:station:USF.COMPS:C10:1,2014-02-15T18:35:00Z,27.1690,-82.9260,62.33,1111122 
COMPS,ioos:station:USF.COMPS:C10:1,2014-02-15T19:05:00Z,27.1690,-82.9260,61.23,1111122 
COMPS,ioos:station:USF.COMPS:C10:1,2014-02-15T19:35:00Z,27.1690,-82.9260,59.77,1111122 
COMPS,ioos:station:USF.COMPS:C10:1,2014-02-15T20:05:00Z,27.1690,-82.9260,61.19,1111122 
COMPS,ioos:station:USF.COMPS:C10:1,2014-02-15T20:35:00Z,27.1690,-82.9260,62.12,1111122 
COMPS,ioos:station:USF.COMPS:C10:1,2014-02-15T21:05:00Z,27.1690,-82.9260,64.45,1111122 
COMPS,ioos:station:USF.COMPS:C10:1,2014-02-15T21:35:00Z,27.1690,-82.9260,62.55,1111122 
COMPS,ioos:station:USF.COMPS:C10:1,2014-02-15T22:05:00Z,27.1690,-82.9260,63.06,1111122 
COMPS,ioos:station:USF.COMPS:C10:1,2014-02-15T22:35:00Z,27.1690,-82.9260,61.81,1111122 